Location: Bergnerzell
(49.1816°N, 10.2565°E)
Time: 02:31:25
(UTC+00:00)

Okean 2 - Pass Details

Date: 23 May 2024
Orbit: 540 x 553 km, 82.5° (Epoch: 19 June)

Event Time Altitude Azimuth Distance (km) Brightness Sun altitude
Exits shadow 00:51:07 37° 197° (SSW) 847 3.7 -17.0°
Maximum altitude 00:52:35 80° 279° (W) 556 3.2 -16.9°
Drops below altitude 10° 00:56:35 10° 8° (N) 1,817 7.1 -16.7°
Sets 00:58:46 0° 9° (N) 2,715 8.4 -16.5°
